Regional Weather Roundup
Issued by NWS

Current Version | Previous Version | Text Only | Print | Product List | Glossary On
Versions: 1 2 3 4 5 6 7 8 9 10 11 12 13 14 15 16 17 18 19 20 21 22 23 24 25 26 27 28 29 30 31 32 33 34 35 36 37 38 39 40 41 42 43 44 45 46 47 48 49 50
000
ASUS42 KTBW 281610
RWRFL
FLORIDA REGIONAL WEATHER ROUNDUP
NATIONAL WEATHER SERVICE TAMPA BAY RUSKIN FL
1100 AM EST WED JAN 28 2015

NOTE: "FAIR" INDICATES FEW OR NO CLOUDS BELOW 12,000 FEET WITH NO
SIGNIFICANT WEATHER AND/OR OBSTRUCTIONS TO VISIBILITY.


FLZ001>010-012>015-112-114-115-281700-
PANHANDLE FLORIDA

CITY           SKY/WX    TMP DP  RH WIND       PRES   REMARKS
PENSACOLA      SUNNY     50  33  52 VRB3      30.29S
MILTON NAS     SUNNY     51  31  46 NE6       30.29F
CRESTVIEW      SUNNY     55  33  43 NE6       30.31S
DUKE FIELD     SUNNY     48  32  53 N8        30.29F WCI  45
VALPARAISO     SUNNY     50  33  51 N10       30.29S
MARY ESTHER    SUNNY     51  29  42 NE7       30.28S
PANAMA CITY    FAIR      49  34  56 N9        30.29R WCI  45
TYNDALL AFB    SUNNY     49  35  56 NE8       30.29S
APALACHICOLA   SUNNY     53  35  50 NE9       30.28R

STATION/POSITION SKY/WX   TEMP    WIND        PRES    WAVE   SWELL
                          AIR SEA DIR/SP/G            HT/PER HT/PER
                          (F)     (DEG/KT/KT) (MB)    (FT/S) (FT/S)
30.1N   87.6W              51 62   50/ 12/ 16 1025.6R   2/ 4
29.2N   88.2W              59 67   40/ 16/ 17 1025.7    3/ 5
28.7N   86.0W              59 70   40/ 10/ 14 1025.4R   3/ 5   2/ 6
PANAMA CITY BEAC           47 59   50/  9/ 12 1025.5S
CAPE SAN BLAS    NOT AVBL
TOWER C                    48      50/ 12/ 13 1025.4R
28.5N   84.5W              58 68   20/ 10/ 14 1024.7R   4/ 6   3/ 6

$$
FLZ011-016>038-118-127-128-134-139-239-281700-
NORTH FLORIDA

CITY           SKY/WX    TMP DP  RH WIND       PRES   REMARKS
MARIANNA       SUNNY     46  33  60 NE7       30.30R WCI  42
TALLAHASSEE    SUNNY     48  29  47 N12       30.29R WCI  43
PERRY          SUNNY     47  34  60 N10       30.28R WCI  43
CROSS CITY       N/A     51  33  50 NE8       30.27S
LAKE CITY      FAIR      46  32  57 NE7       30.26R WCI  43
GAINESVILLE    SUNNY     49  32  52 N6        30.26R
MAYPORT NAS    MOSUNNY   48  36  63 N14       30.26R WCI  42
JACKSONVILLE   SUNNY     50  28  42 N9        30.26R
JAX NAS        MOSUNNY   50  29  44 N10       30.27R
JAX CRAIG      SUNNY     48  34  58 N7        30.26R WCI  45
JAX CECIL      SUNNY     48  28  46 N7        30.26R
FERNANDINA BEA FAIR      54  34  47 N12       30.25R
ST AUGUSTINE   PTSUNNY   50  40  68 N12G20    30.26R

STATION/POSITION SKY/WX   TEMP    WIND        PRES    WAVE   SWELL
                          AIR SEA DIR/SP/G            HT/PER HT/PER
                          (F)     (DEG/KT/KT) (MB)    (FT/S) (FT/S)
SHELL POINT                43     360/  8/ 12   N/A
KEATON BEACH               47      10/  8/ 12 1025.2R
CEDAR KEY                  46      40/ 10/ 14 1024.9R
FERNANDINA                 46 54   30/  8/ 12 1024.2R
30.7N   81.3W                 57                N/A     4/ 5   2/12
MAYPORT                    46 57   20/ 12/ 16   N/A
31.4N   80.9W              44 54   30/ 19/ 25 1024.0R   4/ 5   2/10
ST AUGUSTINE               47     360/ 16/ 17 1024.5R

$$
FLZ040-043>046-052-053-057-058-063-144-281700-
INTERIOR CENTRAL FLORIDA

CITY           SKY/WX    TMP DP  RH WIND       PRES   REMARKS
OCALA          SUNNY     50  30  46 N9        30.26R
THE VILLAGES     N/A     50  32  50 N9        30.16R HAZE
LEESBURG       SUNNY     50  34  54 NW13G20   30.26R
SANFORD        SUNNY     53  34  48 NW9       30.24R
ORLANDO EXEC   SUNNY     54  34  46 NW8       30.23S
ORLANDO INTL   SUNNY     55  33  43 NW10      30.23S
KISSIMMEE      SUNNY     55  36  47 NW14      30.24R
WINTER HAVEN   SUNNY     57  33  40 N10       30.25R
LAKELAND       SUNNY     54  36  50 NE12      30.24S
BARTOW         SUNNY     54  32  43 NW12      30.25R
OKEECHOBEE     SUNNY     57  34  41 N13       30.22S

$$
FLZ041-047-054-059-064-141-147-281700-
EAST CENTRAL FLORIDA

CITY           SKY/WX    TMP DP  RH WIND       PRES   REMARKS
ORMOND BEACH   MOSUNNY   50  39  66 N12       30.23R
DAYTONA BEACH  MOSUNNY   54  40  59 N14       30.23R
DELAND         SUNNY    N/A N/A N/A NW8       30.24S
NEW SMYRNA BEA SUNNY     54  41  62 N12G23    30.23R
JFK SPACE CTR  SUNNY     55  42  61 N10       30.21R
TITUSVILLE     SUNNY     54  36  50 NW12      30.22R
CAPE CANAVERAL SUNNY     56  43  62 NW16G22   30.21R
PATRICK AFB    SUNNY     55  35  48 NW15      30.21R
MELBOURNE      SUNNY     59  30  33 N14       30.20S
VERO BEACH     SUNNY     59  31  34 N17       30.20R
FT PIERCE      SUNNY     60  35  39 N9G18     30.20R
STUART         MOSUNNY   59  32  36 N9        30.20R

STATION/POSITION SKY/WX   TEMP    WIND        PRES    WAVE   SWELL
                          AIR SEA DIR/SP/G            HT/PER HT/PER
                          (F)     (DEG/KT/KT) (MB)    (FT/S) (FT/S)
28.5N   80.2W              56 70  330/ 17/ 23 1022.1R
28.9N   78.5W              62 75  320/ 16/ 19 1020.6R   6/ 7   5/13
TRIDENT PIER               53 62  320/  8/ 11 1022.8R
28.4N   80.5W                 62                N/A     2/13
27.6N   80.2W                 71                N/A     4/ 5

$$
FLZ050-056-061-142-242-148-248-149-249-151-251-155-255-
160-260-281700-
WEST CENTRAL FLORIDA

CITY           SKY/WX    TMP DP  RH WIND       PRES   REMARKS
CRYSTAL RIVER  FAIR      52  32  46 N9        30.26S
INVERNESS      FAIR      52  34  50 N7        30.26S
BROOKSVILLE    SUNNY     55  34  45 N9        30.26R
ZEPHYRHILLS    FAIR      54  34  47 N9        30.26R
CLEARWATER     SUNNY     56  36  47 N8        30.25R
TAMPA INTL     SUNNY     57  33  40 N9        30.26R
TAMPA EXEC     SUNNY     59  34  38 N8        30.26R
PLANT CITY       N/A    N/A N/A N/A MISG        N/A
MACDILL AFB    SUNNY     60  35  39 N7        30.25R
PETER O KNIGHT SUNNY     59  36  41 NE8       30.25R
ST PETERSBURG  SUNNY     56  37  49 NE12      30.23S
SARASOTA       SUNNY     58  34  40 NE8       30.22S
VENICE         FAIR      59  36  41 N10G16    30.24S

STATION/POSITION SKY/WX   TEMP    WIND        PRES    WAVE   SWELL
                          AIR SEA DIR/SP/G            HT/PER HT/PER
                          (F)     (DEG/KT/KT) (MB)    (FT/S) (FT/S)
CEDAR KEY                  46      40/ 10/ 14 1024.9R
28.5N   84.5W              58 68   20/ 10/ 14 1024.7R   4/ 6   3/ 6
27.3N   84.3W                 72                N/A     5/ 6
CLEARWATER BEACH           53 60   20/ 11/ 14 1024.0R
MIDDLE TAMPA BAY           53      20/  9/ 11 1024.3R
VENICE                     57 64   50/  9/ 11 1023.4R

$$
FLZ066-069-070-075>078-162-262-165-265-281700-
SOUTHWEST FLORIDA AND KEYS

CITY           SKY/WX    TMP DP  RH WIND       PRES   REMARKS
PUNTA GORDA    SUNNY     59  37  44 NE12G20   30.24S
FT MYERS       SUNNY     60  37  42 NE9       30.21R
SOUTHWEST INTL SUNNY     60  38  43 N10       30.22R
NAPLES         SUNNY     63  39  41 NE10      30.20S
MARCO ISLAND   SUNNY     63  39  42 N13       30.21S
IMMOKALEE      SUNNY    N/A N/A N/A NE13      30.22S
MARATHON       SUNNY     64  45  49 N13       30.19S
KEY WEST NAS   SUNNY     66  45  46 N15       30.21R
KEY WEST INTL  SUNNY     66  46  48 N15       30.21R

STATION/POSITION SKY/WX   TEMP    WIND        PRES    WAVE   SWELL
                          AIR SEA DIR/SP/G            HT/PER HT/PER
                          (F)     (DEG/KT/KT) (MB)    (FT/S) (FT/S)
VENICE                     57 64   50/  9/ 11 1023.4R
NAPLES                     59 73  360/  6/ 11 1023.5R
26.0N   85.6W              68 73   30/ 12/ 16 1023.1R   5/ 6   3/ 6
DRY TORTUGAS               65      30/ 18/ 20 1022.3R
NW FL BAY                  60      40/ 11/ 13 1022.3R
SAND KEY                   63      20/ 19/ 22 1022.6R
SOMBRERO KEY               61      10/ 15/ 16 1022.9R
LONG KEY                   59 66   10/ 14/ 15 1022.9R
MOLASSES REEF              60 74  360/ 16/ 19 1021.7S

$$
FLZ067-068-071>074-168-172>174-281700-
SOUTHEAST FLORIDA

CITY           SKY/WX    TMP DP  RH WIND       PRES   REMARKS
W PALM BEACH   MOSUNNY   63  35  35 NW17      30.17S
FT LAUDER-EXEC SUNNY     62  34  35 NW9G18    30.18S
FT LAUDERDALE  SUNNY     62  36  37 N9G24     30.18R
POMPANO BEACH  SUNNY     64  34  32 N14       30.18R
PEMBROKE PINES SUNNY     63  35  35 N14       30.20R
OPA LOCKA      SUNNY     63  36  36 N14G22    30.19R
MIAMI          SUNNY     63  35  35 NW12G20   30.20R
WEST KENDALL   SUNNY     65  36  34 N17       30.20R
HOMESTEAD      SUNNY     63  37  37 N15       30.19R

STATION/POSITION SKY/WX   TEMP    WIND        PRES    WAVE   SWELL
                          AIR SEA DIR/SP/G            HT/PER HT/PER
                          (F)     (DEG/KT/KT) (MB)    (FT/S) (FT/S)
PORT EVERGLADES            60     340/  8/ 15 1021.8
VIRGINIA KEY               61 66   20/  6/ 12 1022.5R
LAKE WORTH                 59 72  330/ 13/ 19 1021.5R



USA.gov is the U.S. government's official web portal to all federal, state and local government web resources and services.